CDT,Max TemperatureF,Mean TemperatureF,Min TemperatureF,Max Dew PointF,MeanDew PointF,Min DewpointF,Max Humidity, Mean Humidity, Min Humidity, Max Sea Level PressureIn, Mean Sea Level PressureIn, Min Sea Level PressureIn, Max VisibilityMiles, Mean VisibilityMiles, Min VisibilityMiles, Max Wind SpeedMPH, Mean Wind SpeedMPH, Max Gust SpeedMPH,PrecipitationIn, CloudCover, Events, WindDirDegrees
2013-10-1,77,64,48,52,42,24,79,46,15,29.99,29.80,29.65,10,10,10,17,9,24,0.00,0,,232
2013-10-2,76,57,38,54,40,32,93,60,20,30.09,30.00,29.89,10,10,4,17,4,23,0.30,3,Rain-Thunderstorm,102
2013-10-3,59,56,54,57,55,53,97,92,82,29.96,29.89,29.83,10,9,3,15,7,20,1.05,5,Rain-Thunderstorm,45
2013-10-4,58,56,55,57,55,54,97,92,87,30.01,29.96,29.90,10,8,3,21,8,25,0.02,8,Rain,50
2013-10-5,62,56,49,62,57,47,99,96,90,29.94,29.81,29.73,10,7,1,13,6,21,0.73,7,Rain-Thunderstorm,85
2013-10-6,58,49,41,50,44,40,99,84,54,29.81,29.72,29.68,10,8,0,15,3,23,0.03,5,Fog-Rain,237
2013-10-7,65,54,43,46,42,33,97,72,30,30.02,29.91,29.81,10,10,7,14,5,20,0.03,1,,274
2013-10-8,75,58,41,47,42,39,96,59,28,30.03,29.97,29.91,10,9,5,21,7,29,0.00,0,,141
2013-10-9,74,63,52,50,47,42,80,58,40,30.11,30.06,29.98,10,10,10,17,9,23,0.00,0,,155
2013-10-10,73,59,45,49,46,42,92,68,35,30.09,30.04,29.96,10,10,10,15,6,18,0.00,0,,120
2013-10-11,76,62,49,54,50,46,94,64,40,29.97,29.85,29.74,10,10,10,24,9,34,0.00,2,,123
2013-10-12,70,58,47,55,43,37,75,61,47,30.16,29.93,29.73,10,10,10,24,12,36,0.00,5,,229
2013-10-13,60,50,39,40,35,28,90,64,31,30.42,30.35,30.16,10,10,10,13,6,,0.00,0,,272
2013-10-14,56,44,33,43,36,32,94,69,44,30.43,30.28,30.03,10,10,10,18,4,24,0.00,2,Rain,93
2013-10-15,55,51,47,54,48,43,97,93,75,30.02,29.79,29.69,10,6,2,18,11,25,0.92,8,Rain,141
2013-10-16,49,42,36,48,41,35,97,87,63,29.93,29.88,29.74,10,9,3,14,8,23,0.01,6,Rain,303
2013-10-17,55,44,33,44,38,32,98,82,54,29.90,29.82,29.77,10,8,3,8,2,,0.00,4,Rain,194
2013-10-18,52,44,37,45,35,26,93,72,37,29.94,29.87,29.78,10,10,5,16,8,21,0.05,6,Rain,284
2013-10-19,46,41,36,38,34,32,93,80,64,29.84,29.75,29.68,10,10,7,10,5,,0.00,5,Rain,228
2013-10-20,44,36,30,40,35,30,99,92,78,29.81,29.73,29.63,10,7,2,17,5,23,0.09,6,Rain,137
2013-10-21,37,35,33,34,25,18,91,66,48,29.93,29.90,29.82,10,10,5,20,12,24,0.02,7,Rain,267
2013-10-22,39,33,27,29,27,24,92,78,62,30.02,29.97,29.92,10,10,10,12,6,17,0.00,4,,288
2013-10-23,39,34,28,32,27,22,93,77,58,30.06,30.01,29.97,10,10,4,14,4,18,0.00,8,Snow,281
2013-10-24,44,38,32,28,25,22,75,63,47,30.29,30.19,30.06,10,10,10,17,9,21,0.00,7,,280
2013-10-25,54,43,32,37,31,26,90,61,45,30.30,30.08,29.74,10,10,10,26,9,33,0.00,4,,214
2013-10-26,51,42,32,39,30,26,79,59,45,30.07,29.95,29.73,10,10,10,20,11,28,0.00,5,,288
2013-10-27,60,44,27,32,29,25,90,64,29,30.12,29.94,29.80,10,10,10,15,5,22,0.00,1,,247
2013-10-28,43,36,27,31,23,18,82,59,36,30.44,30.36,30.13,10,10,7,16,9,20,0.00,0,,36
2013-10-29,41,34,27,37,28,20,86,74,66,30.43,30.28,30.10,10,10,5,10,4,,0.00,7,Rain-Snow,71
2013-10-30,50,45,40,50,44,37,99,97,89,30.10,29.92,29.68,7,2,0,9,4,,0.20,8,Fog-Rain,93
2013-10-31,51,46,40,51,45,38,100,96,89,29.67,29.46,29.36,10,3,0,15,5,18,0.03,8,Fog-Rain,266